Seretse Khama, Botswana

9:30 PM CAT on August 17, 2017 (GMT +0200)
Seretse Khama

Weather History for FBSK - February, 2013

Change the Weather History Date:

Friday, February 15, 2013

  Actual Average Record
Temperature  
Mean Temperature 82 °F -  
Max Temperature 95 °F 84 °F 97 °F (2016)
Min Temperature 68 °F 64 °F 46 °F (2004)
Cooling Degree Days 16    
Growing Degree Days 32 (Base 50)    
Moisture  
Dew Point 57 °F    
Average Humidity 46    
Maximum Humidity 78    
Minimum Humidity 21    
Precipitation  
Precipitation 0.00 in - - ()
Sea Level Pressure  
Sea Level Pressure 29.93 in    
Wind  
Wind Speed 4 mph ()    
Max Wind Speed 14 mph    
Max Gust Speed 38 mph    
Visibility 6.2 miles    
Events Thunderstorm    
Averages and records for this station are not official NWS values.
T = Trace of Precipitation, MM = Missing Value Source: Averaged Metar Reports

Daily Weather History Graph

Daily Weather History Graph

Search for Another Location

Airport or City:

Trip Planner

Search our weather history database for the weather conditions in past years. The results will help you decide how hot, cold, wet, or windy it might be!

Date:

Astronomy

Feb. 15, 2013 Rise Set
Actual Time 6:03 AM CAT 6:57 PM CAT
Civil Twilight 5:39 AM CAT 7:20 PM CAT
Nautical Twilight 5:11 AM CAT 7:48 PM CAT
Astronomical Twilight 4:43 AM CAT 8:17 PM CAT
Moon 10:44 AM CAT (2/15) 10:13 PM CAT (2/15)
Length of Visible Light 13h 41m
Length of Day
12h 54m
Waxing Crescent, 27% of the Moon is Illuminated
Feb 15
Waxing Crescent
Feb 17
First Quarter
Feb 25
Full
Mar 4
Last Quarter
Mar 11
New

Hourly Weather History & Observations

Time (CAT) Temp. Heat Index Dew Point Humidity Pressure Visibility Wind Dir Wind Speed Gust Speed Precip Events Conditions
12:00 AM 75.2 °F - 59.0 °F 57% 29.92 in - Variable 2.3 mph - N/A   Clear
1:00 AM 75.2 °F - 59.0 °F 57% 29.92 in - South 4.6 mph - N/A   Clear
2:00 AM 73.4 °F - 60.8 °F 65% 29.92 in - Variable 2.3 mph - N/A   Clear
3:00 AM 73.4 °F - 60.8 °F 65% 29.89 in - Variable 5.8 mph - N/A   Clear
4:00 AM 69.8 °F - 60.8 °F 73% 29.92 in - Variable 1.2 mph - N/A   Clear
5:00 AM 68.0 °F - 60.8 °F 78% 29.92 in - Variable 2.3 mph - N/A   Clear
6:00 AM 68.0 °F - 60.8 °F 78% 29.95 in - ENE 1.2 mph - N/A   Clear
7:00 AM 71.6 °F - 60.8 °F 69% 29.98 in - South 6.9 mph - N/A   Clear
8:00 AM 78.8 °F - 59.0 °F 51% 30.01 in - East 5.8 mph - N/A   Clear
9:00 AM 82.4 °F 82.0 °F 57.2 °F 42% 30.01 in - ENE 8.1 mph 38.0 mph N/A   Clear
10:00 AM 86.0 °F 84.9 °F 57.2 °F 37% 29.98 in - Variable 2.3 mph - N/A   Clear
11:00 AM 89.6 °F 88.1 °F 57.2 °F 33% 29.98 in - NE 5.8 mph - N/A   Clear
12:00 PM 91.4 °F 89.4 °F 55.4 °F 29% 29.95 in 6.2 mi Variable 3.5 mph - N/A   Partly Cloudy
1:00 PM 95.0 °F 92.7 °F 53.6 °F 25% 29.92 in 6.2 mi SE 6.9 mph - N/A   Scattered Clouds
2:00 PM 95.0 °F 92.7 °F 53.6 °F 25% 29.92 in 6.2 mi SE 6.9 mph - N/A Thunderstorm Thunderstorm
3:00 PM 93.2 °F - 48.2 °F 21% 29.89 in 6.2 mi ENE 10.4 mph - N/A Thunderstorm Thunderstorm
4:00 PM 87.8 °F 85.7 °F 53.6 °F 31% 29.86 in 6.2 mi WSW 10.4 mph - N/A Thunderstorm Thunderstorm
5:00 PM 93.2 °F 91.3 °F 55.4 °F 28% 29.86 in 6.2 mi SSW 3.5 mph - N/A   Scattered Clouds
6:00 PM 93.2 °F - 51.8 °F 24% 29.86 in 6.2 mi South 8.1 mph - N/A   Partly Cloudy
7:00 PM 86.0 °F 84.2 °F 53.6 °F 33% 29.89 in 6.2 mi South 13.8 mph - N/A   Scattered Clouds
10:00 PM 77.0 °F - 57.2 °F 50% 29.95 in 6.2 mi NE 3.5 mph - N/A   Partly Cloudy
11:00 PM 77.0 °F - 55.4 °F 47% 29.98 in - NE 3.5 mph - N/A   Clear